Starlink 30284

operational
NORAD ID: 57877 Int'l Des: 2023-144 Owner: SPXS Country: US Constellation: starlink
LEOCIRCULAR

Über Starlink 30284

Beschreibung wird geladen...

Live-Position

3D-Globus wird geladen...

Nächste Überflüge

Höhenverlauf

Altitude vs Time

uPlot chart will show altitude changes over time

Zweizeiliger Elementsatz

1 57877U 23144P 25259.33234135 .00001520 00000-0 12757-3 0 9998
2 57877 43.0024 116.5696 0001205 262.9950 97.0755 15.02542467111826
Epoch: 16. Sept. 2025 • Age: 17 hours

Aktueller Status

Höhe 565.6 km
Geschwindigkeit 7.58 km/s
Subsatellitenpunkt -27.62°S, 62.43°E
Startdatum 16. Sept. 2023
Alter 2 years
Typ internet

Technische Details

Klassifizierung Payload
Masse 730.00 kg
Trockenmasse 700.00 kg
Gesamtmasse 730.00 kg
Länge 0.30 m
Durchmesser 4.10 m
Spannweite 29.00 m
Form Box + pan
Hersteller SPXS
Bus-Typ Starlink V2M
Phasenstatus In Orbit
Besitzer/Staat SPXS/US

Große Konstellationen

Loading constellations...